Location: Regona
(45.2000°N, 9.8167°E)
Time: 20:36:38
(UTC+00:00)

Cosmos 1315 Rocket - Pass Details

Date: 07 June 2020
Orbit: 529 x 568 km, 81.2° (Epoch: 11 July)

Event Time Altitude Azimuth Distance (km) Brightness Sun altitude
Rises 00:36:52 0° 358° (N) 2,685 7.6 -19.8°
Reaches altitude 10° 00:39:11 10° 8° (N) 1,792 6.6 -19.6°
Maximum altitude 00:42:45 32° 73° (ENE) 926 4.3 -19.4°
Enters shadow 00:45:17 16° 129° (SE) 1,429 4.7 -19.3°
